Location: Fauquembergues
(50.6005°N, 2.0987°E)
Time: 08:49:51
(UTC+00:00)

Cosmos 1733 Rocket - Pass Details

Date: 14 July 2020
Orbit: 604 x 627 km, 82.5° (Epoch: 14 August)

Event Time Altitude Azimuth Distance (km) Brightness Sun altitude
Exits shadow 03:06:39 - 218° (SW) 2,096 5.1 -6.6°
Reaches altitude 10° 03:07:02 10° 220° (SW) 1,951 4.9 -6.6°
Maximum altitude 03:11:02 36° 288° (WNW) 961 3.8 -6.2°
Drops below altitude 10° 03:15:04 10° 356° (N) 1,967 6.3 -5.7°
Sets 03:17:27 0° 5° (N) 2,877 7.3 -5.4°
